Location: Newark
(0.5300°S, 127.4800°E)
Time: 04:09:07
(UTC+00:00)

Transit 4A - Pass Details

Date: 01 October 2019
Orbit: 867 x 978 km, 66.8° (Epoch: 19 October)

Event Time Altitude Azimuth Distance (km) Brightness Sun altitude
Rises 12:17:01 0° 303° (WNW) 3,454 11.4 -44.2°
Reaches altitude 10° 12:20:57 10° 277° (W) 2,508 10.7 -45.1°
Enters shadow 12:23:29 13° 250° (WSW) 2,284 10.4 -45.8°
